Погода в Мелекшине

Россия / Рязанская область     54°09′28″N   40°11′51″E
темп.,
°C
ветер,
м/с
пор.,
м/с
влажн.,
%
обл.,
%
осадки,
мм/ч
давл.,
гПа
погр.,
м
24 июля, сб
сб2400:00+13сз36855 0.0 100999
03:00+12зсз35905 0.0 101086
06:00+13сз25856 0.0 1010131
09:00+18сз4563100 0.0 1011564
12:00+20сз455190 0.0 10121084
15:00+21зсз554296 0.0 10131833
18:00+19с245681 0.0 1014296
21:00+15с226575 0.0 101620
25 июля, вс
вс2500:00+15св2263100 0.0 101844
03:00+15св2263100 0.0 101923
06:00+15с1166100 0.0 102025
09:00+17в1261100 0.0 1021213
12:00+21всв22456 0.0 10221491
15:00+20ссз2245100 0.0 1022679
18:00+21ю114113 0.0 1022725
21:00+16юз225615 0.0 102314
26 июля, пн
пн2600:00+15зсз115792 0.0 102412
03:00+16юз225482 0.0 102425
06:00+15з116475 0.0 102526
09:00+20зюз124715 0.0 1025511
12:00+24з223511 0.0 10251862
15:00+25зсз233356 0.0 10242349
18:00+24сз234313 0.0 1023883
21:00+17с22605 0.0 102415
27 июля, вт
вт2700:00+16зюз016064 0.0 102411
03:00+15зсз22625 0.0 102411
06:00+16зсз22614 0.0 102435
09:00+23з23465 0.0 1024505
12:00+26з33360 0.0 10232226
15:00+27зсз333347 0.0 10222611
18:00+26сз354110 0.0 1021583
21:00+21сз2253100 0.0 102122
28 июля, ср
ср2800:00+18зсз22642 0.0 102114
03:00+16з12676 0.0 102111
06:00+18з22655 0.0 102046
09:00+24з34495 0.0 1019564
12:00+28зюз44374 0.0 10182344
15:00+29з243147 0.0 10162532
18:00+28зюз24366 0.0 1014656
21:00+24юз2242100 0.0 101332